Rush City, MN

2:21 AM CST on February 09, 2016 (GMT -0600)
Rush City Regional

Weather History for KROS - July, 2013

Change the Weather History Date:

Wednesday, July 10, 2013

  Actual Average (KSTC) Record (KSTC)
Temperature  
Mean Temperature 66 °F 70 °F  
Max Temperature 77 °F 83 °F 106 °F (1936)
Min Temperature 56 °F 59 °F 42 °F (1945)
Degree Days  
Heating Degree Days 0 1  
Month to date heating degree days 10  
Since 1 June heating degree days 88  
Since 1 July heating degree days 10  
Cooling Degree Days 2 6  
Month to date cooling degree days 59  
Year to date cooling degree days 179  
Since 1 June cooling degree days 154  
Growing Degree Days 16 (Base 50)    
Moisture  
Dew Point 56 °F    
Average Humidity 69    
Maximum Humidity 91    
Minimum Humidity 44    
Precipitation  
Precipitation 0.03 in 0.10 in 1.96 in (2002)
Month to date precipitation 1.13  
Year to date precipitation 13.61  
Snow  
Snow 0.00 in 0.00 in 0.00 in ()
Month to date snowfall 0.0  
Since 1 June snowfall 0.0  
Since 1 July snowfall 0.0  
Snow Depth -    
Sea Level Pressure  
Sea Level Pressure 30.01 in    
Wind  
Wind Speed 6 mph (NW)    
Max Wind Speed 13 mph    
Max Gust Speed 20 mph    
Visibility 10 miles    
Events      
T = Trace of Precipitation, MM = Missing Value Source: NWS Daily Summary

Daily Weather History Graph

Daily Weather History Graph

Search for Another Location

Airport or City:

Trip Planner

Search our weather history database for the weather conditions in past years. The results will help you decide how hot, cold, wet, or windy it might be!

Date:

Astronomy

Jul. 10, 2013 Rise Set
Actual Time 5:32 AM CDT 9:01 PM CDT
Civil Twilight 4:55 AM CDT 9:38 PM CDT
Nautical Twilight 4:06 AM CDT 10:27 PM CDT
Astronomical Twilight 3:02 AM CDT 11:30 PM CDT
Moon 8:04 AM CDT (7/10) 9:59 PM CDT (7/10)
Length of Visible Light 16h 42m
Length of Day
15h 28m
Waxing Crescent, 5% of the Moon is Illuminated
Jul 10
Waxing Crescent
Jul 15
First Quarter
Jul 22
Full
Jul 29
Last Quarter
Aug 6
New

Hourly Weather History & Observations

Time (CDT) Temp. Dew Point Humidity Pressure Visibility Wind Dir Wind Speed Gust Speed Precip Events Conditions
12:15 AM 66.4 °F 60.3 °F 81% 29.92 in 10.0 mi WNW 3.5 mph - N/A   Scattered Clouds
12:35 AM 66.4 °F 60.1 °F 80% 29.93 in 10.0 mi NNW 6.9 mph - N/A   Mostly Cloudy
12:55 AM 67.1 °F 59.7 °F 77% 29.93 in 10.0 mi NNW 6.9 mph - N/A   Overcast
1:15 AM 66.6 °F 59.5 °F 78% 29.93 in 10.0 mi NNW 4.6 mph - N/A   Mostly Cloudy
1:35 AM 65.7 °F 59.4 °F 80% 29.94 in 10.0 mi NW 8.1 mph - N/A   Mostly Cloudy
1:55 AM 66.0 °F 56.3 °F 71% 29.94 in 10.0 mi NW 10.4 mph 19.6 mph N/A   Mostly Cloudy
2:15 AM 64.4 °F 54.5 °F 70% 29.95 in 10.0 mi NW 12.7 mph 18.4 mph N/A   Scattered Clouds
2:35 AM 63.7 °F 53.8 °F 70% 29.96 in 10.0 mi NW 10.4 mph - N/A   Scattered Clouds
2:55 AM 62.4 °F 54.0 °F 74% 29.96 in 10.0 mi NW 4.6 mph - N/A   Scattered Clouds
3:15 AM 61.9 °F 54.0 °F 75% 29.97 in 10.0 mi NW 4.6 mph - N/A   Scattered Clouds
3:35 AM 61.0 °F 54.0 °F 78% 29.98 in 10.0 mi NW 4.6 mph - 0.01 in   Scattered Clouds
3:55 AM 60.3 °F 54.0 °F 80% 29.98 in 10.0 mi WNW 4.6 mph - 0.01 in   Scattered Clouds
4:15 AM 58.1 °F 53.6 °F 85% 29.99 in 10.0 mi West 3.5 mph - N/A   Scattered Clouds
4:35 AM 57.6 °F 53.8 °F 87% 30.00 in 10.0 mi WNW 3.5 mph - N/A   Clear
4:55 AM 57.4 °F 54.0 °F 88% 30.00 in 10.0 mi WNW 3.5 mph - N/A   Clear
5:15 AM 56.8 °F 53.6 °F 89% 30.01 in 10.0 mi West 4.6 mph - N/A   Scattered Clouds
5:35 AM 56.5 °F 53.6 °F 90% 30.01 in 10.0 mi West 3.5 mph - N/A   Scattered Clouds
5:55 AM 56.7 °F 54.1 °F 91% 30.01 in 10.0 mi West 4.6 mph - N/A   Clear
6:16 AM 57.2 °F 54.5 °F 91% 30.01 in 10.0 mi West 5.8 mph - N/A   Clear
6:35 AM 57.6 °F 54.9 °F 91% 30.02 in 10.0 mi West 5.8 mph - N/A   Clear
6:55 AM 58.3 °F 55.4 °F 90% 30.03 in 10.0 mi West 5.8 mph - N/A   Clear
7:16 AM 59.4 °F 55.8 °F 88% 30.03 in 10.0 mi West 5.8 mph - N/A   Clear
7:35 AM 60.4 °F 56.1 °F 86% 30.03 in 10.0 mi West 5.8 mph - N/A   Clear
7:55 AM 61.5 °F 56.1 °F 82% 30.04 in 10.0 mi WNW 5.8 mph - N/A   Clear
8:16 AM 62.8 °F 56.7 °F 80% 30.04 in 10.0 mi WNW 5.8 mph - N/A   Clear
8:35 AM 64.4 °F 57.0 °F 77% 30.04 in 10.0 mi NW 9.2 mph - N/A   Clear
8:55 AM 65.3 °F 56.8 °F 74% 30.04 in 10.0 mi NW 8.1 mph - N/A   Clear
9:16 AM 66.0 °F 56.8 °F 72% 30.04 in 10.0 mi NW 4.6 mph - N/A   Clear
9:35 AM 67.1 °F 57.4 °F 71% 30.05 in 10.0 mi NW 5.8 mph - N/A   Clear
9:55 AM 67.5 °F 56.8 °F 69% 30.05 in 10.0 mi NW 9.2 mph - N/A   Clear
10:15 AM 69.4 °F 57.9 °F 67% 30.05 in 10.0 mi NW 8.1 mph - N/A   Scattered Clouds
10:35 AM 70.5 °F 57.7 °F 64% 30.05 in 10.0 mi WNW 9.2 mph - N/A   Mostly Cloudy
10:55 AM 70.3 °F 54.9 °F 58% 30.05 in 10.0 mi NNW 11.5 mph - N/A   Scattered Clouds
11:15 AM 71.2 °F 54.5 °F 55% 30.05 in 10.0 mi NW 8.1 mph - N/A   Scattered Clouds
11:35 AM 72.3 °F 55.0 °F 54% 30.05 in 10.0 mi NW 6.9 mph - N/A   Scattered Clouds
11:55 AM 72.1 °F 54.0 °F 53% 30.05 in 10.0 mi NW 8.1 mph - N/A   Scattered Clouds
12:15 PM 72.5 °F 54.3 °F 53% 30.05 in 10.0 mi NNW 9.2 mph 16.1 mph N/A   Scattered Clouds
12:35 PM 73.4 °F 54.3 °F 51% 30.05 in 10.0 mi NNW 9.2 mph 16.1 mph N/A   Scattered Clouds
12:55 PM 73.4 °F 55.8 °F 54% 30.04 in 10.0 mi NNW 9.2 mph - N/A   Scattered Clouds
1:15 PM 74.3 °F 55.2 °F 51% 30.04 in 10.0 mi NW 8.1 mph - N/A   Scattered Clouds
1:35 PM 74.7 °F 53.1 °F 47% 30.04 in 10.0 mi NNW 8.1 mph - N/A   Clear
1:55 PM 75.6 °F 54.3 °F 48% 30.04 in 10.0 mi NNW 10.4 mph 16.1 mph N/A   Clear
2:15 PM 75.4 °F 55.2 °F 49% 30.03 in 10.0 mi NW 10.4 mph - N/A   Scattered Clouds
2:35 PM 75.4 °F 53.6 °F 47% 30.03 in 10.0 mi NNW 5.8 mph - N/A   Scattered Clouds
2:55 PM 75.4 °F 54.5 °F 48% 30.03 in 10.0 mi NNW 6.9 mph - N/A   Scattered Clouds
3:16 PM 75.6 °F 54.9 °F 48% 30.02 in 10.0 mi North 5.8 mph - N/A   Scattered Clouds
3:35 PM 77.2 °F 54.5 °F 45% 30.02 in 10.0 mi NNW 10.4 mph - N/A   Scattered Clouds
3:55 PM 77.4 °F 54.3 °F 45% 30.02 in 10.0 mi NW 9.2 mph - N/A   Scattered Clouds
4:15 PM 76.8 °F 53.4 °F 44% 30.02 in 10.0 mi NNW 5.8 mph - N/A   Scattered Clouds
4:35 PM 77.2 °F 54.7 °F 46% 30.01 in 10.0 mi NW 5.8 mph - N/A   Clear
4:55 PM 76.8 °F 54.9 °F 46% 30.01 in 10.0 mi WNW 6.9 mph - N/A   Clear
5:16 PM 77.2 °F 54.9 °F 46% 30.01 in 10.0 mi NW 6.9 mph - N/A   Scattered Clouds
5:35 PM 77.0 °F 55.8 °F 48% 30.01 in 10.0 mi WNW 4.6 mph - N/A   Scattered Clouds
5:55 PM 76.5 °F 55.0 °F 47% 30.01 in 10.0 mi West 5.8 mph - N/A   Clear
6:16 PM 76.1 °F 55.0 °F 48% 30.01 in 10.0 mi NW 5.8 mph - N/A   Clear
6:35 PM 75.4 °F 54.3 °F 48% 30.01 in 10.0 mi WNW 5.8 mph - N/A   Clear
6:55 PM 75.4 °F 56.5 °F 52% 30.01 in 10.0 mi WNW 5.8 mph - N/A   Clear
7:16 PM 74.7 °F 57.2 °F 54% 30.01 in 10.0 mi Calm Calm - N/A   Clear
7:35 PM 74.5 °F 58.8 °F 58% 30.01 in 10.0 mi Calm Calm - N/A   Clear
7:55 PM 73.6 °F 59.5 °F 61% 30.01 in 10.0 mi Calm Calm - N/A   Clear
8:15 PM 71.6 °F 60.6 °F 68% 30.01 in 10.0 mi Calm Calm - N/A   Clear
8:35 PM 69.6 °F 60.1 °F 72% 30.01 in 10.0 mi Calm Calm - N/A   Clear
8:55 PM 66.2 °F 60.3 °F 81% 30.01 in 10.0 mi Calm Calm - N/A   Clear
9:15 PM 64.4 °F 60.1 °F 86% 30.01 in 10.0 mi Calm Calm - N/A   Clear
9:35 PM 63.3 °F 59.4 °F 87% 30.02 in 10.0 mi Calm Calm - N/A   Clear
9:55 PM 62.6 °F 59.0 °F 88% 30.03 in 10.0 mi Calm Calm - N/A   Clear
10:15 PM 62.1 °F 59.2 °F 90% 30.03 in 10.0 mi Calm Calm - 0.02 in   Clear
10:35 PM 63.1 °F 59.4 °F 87% 30.04 in 10.0 mi West 3.5 mph - 0.02 in   Scattered Clouds
10:55 PM 62.1 °F 57.9 °F 86% 30.04 in 10.0 mi Calm Calm - 0.02 in   Scattered Clouds
11:16 PM 61.5 °F 57.7 °F 87% 30.05 in 10.0 mi North 3.5 mph - N/A   Scattered Clouds
11:35 PM 62.8 °F 57.2 °F 82% 30.06 in 10.0 mi Calm Calm - N/A   Scattered Clouds
11:56 PM 60.1 °F 56.5 °F 88% 30.06 in 10.0 mi Calm Calm - N/A   Scattered Clouds